RH
84 82 80 79 77 77 77 77 78 77 76 77 77 76 77 75 73 70 65 65 66 67 70 72 73 76 75 71 69 71 77 80 78 79 83 84 82 84 89 92 91 87 86 85 85 83 78 73 72 69 63 53 47 52 69 87 97 101 100 99 100 100 100 101 99 92 86 82 78 81 83 82 82 83 85 91 96 97 98 100 101 99 96 94 95
87 83 82 81 79 78 79 79 79 80 80 79 76 74 73 73 72 69 66 66 66 67 70 72 71 71 72 70 68 71 78 82 82 82 84 86 84 85 88 90 90 91 90 87 88 90 85 78 73 71 71 64 52 48 57 72 89 101 100 99 100 100 100 101 98 93 93 89 79 77 83 85 84 84 85 88 93 97 99 100 101 100 98 97 97
88 87 84 81 79 78 79 79 79 82 82 80 78 74 70 67 67 66 65 65 65 66 70 71 69 69 70 69 68 71 77 82 83 80 80 84 84 83 85 88 91 94 94 90 90 94 93 86 78 73 74 71 60 55 58 68 84 98 100 98 95 93 97 102 100 94 93 94 86 79 81 85 87 89 91 93 96 99 101 100 100 100 99 99 100
90 90 86 84 81 80 81 81 81 82 80 78 78 76 72 68 66 65 64 64 63 66 69 69 67 66 67 67 67 70 74 80 85 82 76 78 83 82 80 84 91 95 93 89 88 92 93 89 82 79 79 78 70 63 63 70 82 93 99 99 91 84 89 99 102 98 95 98 94 83 80 84 89 93 97 100 99 99 100 100 100 100 100 100 100
93 90 89 88 86 85 85 84 84 81 77 78 80 79 76 73 69 66 65 64 63 63 66 66 64 63 63 64 66 69 71 75 84 89 82 78 84 85 79 79 87 92 91 88 88 92 93 89 84 85 86 84 77 71 69 72 81 91 97 100 96 90 91 96 99 99 99 101 99 91 85 85 88 92 96 100 99 99 100 100 100 100 100 100 100
93 91 91 91 90 90 89 87 85 83 80 81 81 80 78 76 73 68 64 63 62 60 60 60 59 59 59 61 65 69 70 71 80 92 90 83 87 90 83 80 87 92 92 91 92 94 93 88 86 88 89 87 80 76 77 80 88 96 99 99 99 98 98 98 98 98 99 100 100 98 95 92 91 93 95 99 100 100 100 100 99 100 100 100 100
94 93 93 93 92 92 90 89 88 87 84 81 80 78 76 76 75 69 63 61 60 57 56 55 55 56 57 61 65 68 71 74 81 92 95 91 92 93 87 84 89 93 94 93 94 95 93 88 87 89 90 89 83 78 81 87 94 99 101 100 100 100 100 100 99 97 96 97 98 100 99 98 98 99 99 100 102 100 100 98 94 93 96 99 100
96 96 96 96 96 95 95 95 95 92 87 82 80 77 75 74 71 64 58 57 57 56 54 54 54 55 59 63 68 70 73 77 84 92 95 95 97 97 91 86 85 90 96 97 94 95 95 90 86 86 87 89 86 80 79 87 95 100 100 100 101 100 98 100 102 99 93 93 96 98 100 100 100 100 101 101 98 94 94 95 93 91 93 97 100
98 100 99 98 99 99 100 102 102 98 91 86 83 80 77 75 70 66 63 63 62 59 56 56 57 61 67 72 75 76 77 81 88 94 95 95 98 99 96 89 84 88 96 99 95 94 96 95 92 89 86 87 88 81 76 83 93 98 100 101 101 100 99 99 103 101 94 92 95 97 99 100 100 100 100 98 94 91 93 98 99 98 98 100 101
99 101 100 100 101 100 100 103 103 100 94 89 86 83 80 78 77 77 75 72 70 66 64 65 67 73 79 81 81 82 83 88 95 99 97 93 94 98 97 91 87 88 92 96 97 94 94 98 100 96 88 85 87 86 78 80 89 94 96 99 100 99 100 100 102 101 96 92 92 92 96 100 101 100 99 98 98 99 100 100 100 100 101 101 101
101 101 100 100 101 100 100 101 101 101 99 95 93 91 90 90 90 89 85 81 77 75 75 77 79 81 83 83 85 87 89 94 99 102 101 95 91 92 91 89 89 88 88 92 96 94 93 98 102 100 93 85 85 91 85 77 81 88 89 92 96 97 99 100 100 101 100 97 93 90 92 97 99 98 99 99 100 101 101 100 100 100 100 100 100
101 101 100 100 100 100 101 100 100 101 101 100 100 100 100 100 100 99 98 95 92 90 90 91 91 90 88 87 88 89 92 97 98 98 97 93 90 88 87 87 88 89 89 90 90 90 92 98 101 102 101 92 84 86 85 78 82 87 83 83 89 92 94 97 99 101 102 100 97 93 90 93 97 98 100 100 100 101 101 101 100 99 99 100 100
101 101 100 100 100 100 100 100 100 100 100 100 101 100 100 101 101 103 103 102 100 99 98 97 96 95 93 90 89 88 88 92 94 94 91 86 85 85 84 85 87 87 86 84 82 84 89 97 101 100 102 100 87 77 73 75 85 90 80 75 80 84 86 89 91 95 98 99 99 94 90 93 98 100 100 100 100 100 100 101 101 100 99 99 99
101 100 100 100 101 100 100 100 100 100 100 100 100 100 100 100 100 101 102 102 101 100 99 99 99 98 98 96 95 93 92 92 92 94 91 85 83 84 84 85 87 87 85 81 80 81 85 93 100 99 100 102 95 81 67 66 80 88 75 65 69 74 78 82 82 84 87 89 91 89 88 92 97 100 101 101 101 101 101 100 100 100 100 100 100
100 100 100 100 100 100 100 100 100 100 100 100 100 100 100 100 100 100 101 100 101 101 100 101 101 100 100 100 100 99 99 98 97 96 95 91 88 88 89 89 89 89 87 85 84 82 82 88 95 97 98 101 101 94 79 70 79 82 66 55 58 62 65 71 74 75 76 75 75 75 76 78 83 86 90 90 91 93 98 101 101 100 100 100 100
100 101 100 100 100 100 100 100 100 100 100 100 101 100 100 100 100 100 100 100 100 100 100 100 100 101 101 101 101 100 100 100 99 99 99 98 97 97 98 97 94 90 86 84 83 80 80 84 88 90 95 99 102 102 94 86 85 77 56 47 52 53 54 58 61 64 65 64 63 62 60 60 60 62 65 67 68 69 74 84 93 98 100 100 100
100 100 100 100 100 100 100 101 101 101 100 99 99 100 101 100 100 100 100 100 100 100 99 99 100 101 99 98 99 100 100 100 100 100 100 100 100 101 101 100 97 93 88 86 83 80 77 79 83 86 91 96 100 102 99 93 89 78 59 49 49 48 49 53 54 55 56 56 56 56 54 52 50 48 49 51 53 54 53 55 64 75 86 94 97
100 100 100 100 100 100 100 101 102 102 101 98 97 98 99 100 100 101 100 99 100 99 98 99 100 99 96 93 94 97 100 100 99 100 100 100 100 100 100 100 99 97 96 96 94 90 85 82 84 87 90 94 99 102 100 94 89 81 67 55 50 47 49 54 56 57 58 58 58 58 56 54 53 51 50 50 50 50 48 45 45 49 58 68 79
100 100 99 99 100 101 100 100 101 101 100 101 100 99 98 98 99 101 101 101 101 100 99 99 99 99 97 92 86 87 93 98 98 96 95 96 97 98 98 98 99 99 99 99 99 99 97 94 92 90 91 94 97 99 97 93 90 84 74 62 51 46 52 61 64 64 63 62 63 65 63 62 60 57 56 57 56 50 46 47 45 41 40 43 52
100 99 98 100 101 101 101 100 100 100 100 100 99 98 97 98 100 101 101 101 101 101 101 101 101 101 100 95 86 77 75 80 84 85 86 87 89 90 90 90 93 96 99 101 101 101 101 100 97 93 90 92 94 94 94 92 88 83 78 71 59 53 62 71 69 65 63 62 64 67 66 64 63 58 54 56 56 52 49 48 44 41 40 37 37
101 100 100 101 101 101 101 98 96 97 98 98 99 100 100 100 101 101 101 101 101 101 101 102 102 102 101 99 96 89 80 75 73 72 72 73 75 76 77 77 80 84 90 94 96 96 95 95 93 91 91 91 91 89 85 82 80 73 67 65 66 68 74 75 68 63 60 59 59 58 57 56 56 54 53 52 52 53 55 52 45 43 44 41 37
100 100 101 102 101 100 100 98 97 97 99 100 100 101 101 101 101 101 101 102 102 101 100 100 100 100 100 99 100 99 95 89 83 76 70 65 63 61 61 62 64 67 70 73 77 80 82 83 83 84 83 80 77 75 73 72 75 76 72 68 69 73 74 72 70 66 59 55 54 53 51 51 53 54 55 54 54 56 60 61 57 52 48 45 43
99 100 101 101 100 99 99 99 100 100 101 100 96 94 98 102 102 101 102 102 102 101 100 100 100 99 100 100 97 95 93 91 89 86 80 74 69 64 59 58 59 61 60 60 61 63 65 66 68 69 69 66 63 65 68 70 73 79 81 75 71 72 73 69 66 63 56 52 52 51 47 48 53 56 56 54 55 57 58 63 65 60 52 47 47
99 101 99 97 96 94 94 97 99 98 98 99 97 96 100 101 99 97 99 101 101 101 101 101 101 100 99 98 94 89 86 85 85 84 84 84 83 82 80 78 77 76 74 72 72 72 70 68 67 66 65 67 68 70 77 83 84 84 85 80 76 78 79 71 61 58 57 55 52 50 47 49 53 56 53 52 56 61 65 70 72 67 58 51 50
100 98 96 96 95 93 93 95 96 96 96 95 97 99 96 91 89 90 96 101 101 101 102 101 100 101 100 98 97 95 93 89 85 84 84 84 85 88 91 94 96 95 93 92 91 91 90 89 87 83 77 75 76 78 84 93 98 97 97 96 93 93 92 85 74 68 65 62 60 59 57 54 54 56 57 58 62 70 78 85 84 76 64 54 51
100 98 97 98 96 96 97 94 93 97 96 91 91 90 82 78 81 87 95 102 101 98 100 102 101 101 102 101 101 101 101 97 92 88 87 86 87 90 94 98 101 101 100 100 100 100 100 99 99 98 95 92 90 89 90 95 100 101 100 102 100 98 98 96 90 82 76 71 69 68 65 65 68 72 75 74 75 81 89 95 94 88 77 67 61
99 98 97 95 95 98 99 97 95 98 96 91 90 87 81 81 84 87 94 102 100 96 98 102 101 99 99 100 101 100 99 98 96 94 93 92 93 94 96 97 99 100 100 100 101 100 100 100 97 95 96 96 97 98 99 100 102 101 100 100 100 100 100 100 98 95 90 84 82 79 79 84 91 93 92 90 91 95 99 100 99 98 94 88 84
95 92 89 90 94 97 98 97 98 99 98 95 95 95 94 95 93 92 97 101 95 90 91 94 94 94 96 98 101 100 100 99 97 95 93 91 91 93 95 96 97 98 98 98 99 100 100 100 99 97 95 93 94 98 100 100 101 101 100 101 101 100 101 101 100 100 97 95 95 94 93 96 101 101 100 100 100 101 101 100 101 100 99 97 95
91 88 87 90 95 97 98 97 97 99 101 100 99 99 100 99 97 97 100 98 92 89 90 91 93 97 99 100 100 100 101 99 97 95 92 90 90 93 96 99 100 99 97 96 97 99 100 100 101 101 100 97 96 97 97 96 98 99 100 101 101 101 102 102 100 100 99 100 101 99 99 101 103 103 102 102 101 100 100 100 99 98 95 95 97
90 90 92 95 96 98 100 99 98 100 100 99 100 101 99 99 98 97 96 94 94 96 99 98 99 100 100 101 101 100 100 99 98 96 95 95 96 97 98 100 100 100 100 98 97 97 97 97 98 100 100 99 99 99 99 98 98 99 100 100 101 101 101 101 100 100 101 100 99 99 100 103 103 103 102 101 100 100 99 99 98 97 96 98 100
91 93 96 97 95 97 100 100 100 101 100 100 101 101 100 101 100 97 94 93 95 99 101 102 102 101 101 102 102 100 100 100 99 98 97 99 101 101 100 100 99 99 100 100 100 99 98 97 97 98 99 100 100 100 101 101 101 101 100 100 100 100 100 100 100 100 99 99 99 100 101 102 102 101 100 100 100 100 100 101 101 100 100 100 101
89 92 95 96 95 97 100 101 100 101 102 104 104 102 102 102 100 100 100 98 99 101 101 100 101 102 101 101 101 101 102 101 100 100 100 101 101 101 101 100 97 97 99 100 100 100 100 99 99 100 100 100 100 100 100 100 101 101 101 100 100 100 100 100 100 99 99 100 100 100 100 100 100 100 100 100 100 100 100 100 101 101 101 101 101
87 90 93 96 98 99 100 100 99 99 101 103 103 103 102 100 98 101 102 101 102 103 100 97 100 102 101 100 100 101 102 101 100 100 100 100 100 101 102 100 96 93 96 99 101 101 100 100 100 100 100 100 101 101 100 100 100 101 100 100 100 99 100 100 100 100 100 100 100 100 100 100 101 101 101 100 100 100 100 101 102 102 101 101 101
85 88 90 93 97 98 98 98 99 100 102 103 102 101 100 96 93 94 95 96 99 101 100 99 100 100 100 100 101 102 102 101 100 100 100 100 100 100 101 99 95 92 94 97 100 102 101 100 100 100 100 99 100 100 100 100 100 100 100 100 99 99 100 100 100 100 101 100 100 100 100 101 102 102 101 100 100 101 101 101 101 101 100 100 101
89 90 92 94 97 98 98 100 103 103 100 97 94 93 93 91 90 91 92 93 95 99 101 101 100 100 100 100 101 103 103 102 101 100 99 101 101 99 97 96 96 97 96 97 100 102 101 100 100 100 100 99 99 100 100 100 99 98 99 101 101 101 101 101 100 100 100 100 100 100 101 101 102 101 100 100 101 101 101 100 101 101 100 100 100
96 97 98 99 100 99 97 98 101 100 95 89 86 87 92 94 95 97 98 97 98 100 102 101 101 102 102 100 101 103 103 102 102 101 100 101 101 97 95 96 99 101 100 99 100 102 102 102 101 101 101 100 99 99 99 98 97 96 98 101 102 101 101 100 99 100 101 100 100 101 101 100 100 100 101 101 100 100 100 100 100 100 100 100 101
98 101 102 102 102 100 95 94 97 100 97 92 89 93 98 100 98 98 97 96 96 98 99 101 102 103 102 101 101 102 102 102 102 100 99 100 99 98 99 99 100 101 102 100 99 100 101 102 102 102 103 101 100 100 100 99 98 97 97 99 99 99 100 100 99 100 100 100 100 101 101 101 101 101 101 101 100 99 99 100 101 101 101 100 97
98 100 102 103 103 101 97 96 98 100 99 98 98 100 100 96 92 93 96 97 97 96 96 98 98 98 99 100 100 101 102 101 100 99 98 98 97 99 101 102 100 101 102 101 99 100 101 102 102 103 103 101 100 100 99 98 98 98 97 98 98 98 98 98 99 100 100 100 101 101 101 101 101 100 100 101 102 102 102 100 98 94 89 83 76
100 100 101 102 101 98 96 96 98 99 100 101 102 101 95 88 86 91 97 99 97 94 93 95 95 96 97 99 99 101 102 101 100 100 100 98 97 98 100 101 100 101 102 102 100 101 102 102 102 101 100 100 100 100 99 100 100 100 101 101 101 100 99 99 100 101 100 100 100 100 100 101 101 101 101 100 98 95 90 83 77 71 66 61 56
101 100 99 98 97 94 91 93 97 100 101 100 99 96 91 87 88 94 99 98 96 94 94 96 98 99 100 99 100 101 102 102 101 101 100 100 99 98 100 101 99 100 103 102 100 101 102 102 102 100 99 100 101 102 102 102 102 102 102 102 102 103 102 101 100 100 100 100 101 101 101 100 98 95 91 86 80 74 68 62 59 56 52 48 45
100 99 98 98 99 98 97 97 99 101 101 100 99 98 96 93 93 97 99 99 97 98 99 99 99 100 100 100 101 101 102 102 100 98 99 101 100 98 100 101 99 100 103 102 100 101 101 101 102 101 100 99 99 99 101 103 103 104 103 103 103 103 102 101 101 101 100 100 98 95 91 87 81 76 70 65 61 58 55 52 49 46 42 39 35
99 98 97 98 101 102 103 102 100 100 100 101 101 103 102 98 97 99 101 101 100 100 101 101 100 100 100 100 100 100 101 102 100 98 99 101 100 99 100 101 99 101 103 103 101 101 100 100 101 102 101 100 99 98 99 100 101 102 103 103 103 103 102 99 97 94 89 85 81 76 71 66 62 59 57 55 53 51 48 45 42 39 35 32 29
96 95 94 95 97 100 103 103 101 100 100 99 100 102 103 101 100 101 101 101 100 101 101 101 100 100 100 100 100 101 101 101 102 101 101 101 101 101 101 101 100 100 102 103 102 101 101 101 101 100 101 102 101 101 100 99 99 100 100 100 98 96 92 88 84 78 74 70 66 63 60 58 57 56 55 53 51 47 44 40 36 33 30 29 29
95 95 96 96 95 97 101 103 102 101 99 97 98 101 102 101 102 101 100 100 101 100 99 100 101 101 101 101 100 100 100 101 102 102 101 101 101 101 101 101 100 100 102 103 102 102 102 102 101 100 100 102 102 103 102 101 99 98 97 95 92 88 84 80 75 71 68 66 63 63 62 60 59 57 53 49 45 40 37 35 33 34 36 38 41
98 99 100 100 99 99 101 102 102 102 100 99 100 101 100 100 101 100 100 101 101 99 99 100 100 101 101 101 101 101 101 101 101 101 101 101 100 100 100 100 100 101 103 103 102 101 102 103 103 102 102 102 103 103 103 102 101 99 96 92 89 85 81 77 73 71 69 68 67 66 63 59 55 50 44 40 38 37 39 41 44 47 50 52 54
99 101 102 101 101 100 101 101 101 101 101 101 100 100 100 101 101 100 100 100 100 100 100 100 100 100 100 100 100 100 100 100 100 100 100 100 100 100 100 100 100 101 102 103 102 102 102 103 103 103 102 102 102 102 102 102 100 96 91 87 84 81 79 76 74 72 70 67 63 59 54 50 47 44 43 45 47 50 53 56 58 59 60 60 58
98 100 101 102 101 101 101 101 101 101 101 101 100 100 101 101 100 100 101 101 100 100 100 100 100 101 100 100 100 100 100 100 101 100 100 100 100 100 100 100 100 101 101 102 102 102 102 102 102 101 102 103 103 102 102 100 96 90 85 82 80 78 76 73 71 68 64 60 56 53 52 52 54 56 57 60 61 62 64 64 62 60 57 52 46
97 99 100 100 101 101 100 100 101 103 103 101 100 100 100 100 100 101 102 102 102 100 100 100 101 100 100 100 100 100 100 101 100 100 101 101 100 100 100 100 100 100 100 101 101 101 101 101 101 101 101 102 103 102 100 95 89 85 82 79 75 73 70 67 64 62 60 60 60 61 62 63 65 66 66 66 65 63 60 56 50 44 40 35 33
94 97 99 99 99 100 101 101 102 103 102 100 100 100 100 100 100 100 101 102 102 100 100 100 100 100 100 101 100 100 100 101 100 100 100 100 100 100 100 100 100 100 100 100 100 100 100 100 100 100 101 102 102 100 95 89 85 81 76 73 70 69 67 66 64 64 66 67 68 67 67 68 68 66 63 59 53 47 42 37 33 32 33 35 39
96 97 98 98 98 99 99 100 101 101 100 100 100 100 100 101 101 100 100 101 100 100 100 100 100 100 100 100 100 100 100 100 100 100 101 100 101 101 100 100 101 101 100 100 100 100 100 101 101 101 101 102 101 97 92 87 83 80 76 75 74 74 74 73 72 72 73 72 69 66 65 62 57 51 44 38 34 33 33 35 38 42 46 50 54
101 101 101 100 99 99 100 100 100 100 100 101 100 100 100 100 100 100 100 100 100 100 100 100 100 100 100 100 101 101 100 100 100 100 100 99 100 100 100 100 100 100 99 100 101 101 101 100 98 98 99 99 99 97 93 90 87 84 83 82 81 79 78 76 74 72 70 65 58 52 47 41 36 34 33 34 38 41 44 47 50 51 53 54 55
Wind_Speed
50 47 45 42 39 38 37 36 38 42 47 50 54 57 57 57 57 56 54 51 49 47 44 41 39 39 39 38 35 33 32 33 33 33 34 38 40 40 38 36 35 34 34 34 35 37 39 41 42 43 46 52 57 62 66 66 61 58 58 61 62 61 60 59 58 57 58 59 60 59 59 60 62 62 63 63 66 70 71 69 66 64 62 59 57
48 44 41 38 36 36 35 34 34 37 42 47 52 55 57 57 57 55 53 50 47 45 42 41 40 40 39 38 35 33 32 33 33 33 34 38 40 40 38 36 35 33 33 33 33 34 35 37 40 41 42 46 50 55 61 66 64 59 58 60 62 60 59 59 58 57 56 56 58 58 57 57 59 60 61 62 62 65 67 67 65 66 65 62 61
44 40 39 36 35 35 34 34 33 35 39 43 48 51 53 54 54 53 51 48 46 43 42 42 42 41 39 38 36 34 34 34 35 35 36 38 40 41 38 35 34 33 33 32 32 32 34 35 37 39 40 42 45 49 54 61 65 60 56 58 62 63 60 59 58 57 56 55 55 56 55 54 55 56 57 58 59 60 61 61 60 62 65 65 63
40 39 38 37 36 35 35 35 34 36 38 39 42 46 48 49 50 49 48 47 44 42 42 43 43 41 39 37 36 35 35 35 36 36 36 38 40 40 39 36 34 33 33 32 31 32 34 35 35 36 39 40 42 44 47 54 60 59 54 52 57 63 63 60 57 57 56 55 54 54 54 53 52 53 54 55 57 59 59 59 57 58 62 65 65
38 38 37 37 36 34 34 34 35 36 36 36 37 40 43 44 45 45 44 43 43 43 43 44 43 40 38 36 36 36 36 36 37 36 35 37 39 41 40 38 35 34 33 32 31 32 33 34 35 36 38 39 40 42 44 48 51 54 53 49 49 55 61 62 59 57 56 56 55 54 54 53 53 53 53 55 56 59 59 59 59 57 59 63 66
37 37 36 36 36 34 33 32 32 33 32 32 33 34 37 39 40 40 40 39 41 43 43 42 41 39 36 35 35 37 37 37 37 37 35 36 39 41 41 38 35 34 33 31 30 30 31 33 34 35 36 37 38 40 41 44 45 46 48 48 45 46 51 56 60 59 57 56 55 55 54 53 52 52 53 53 55 57 58 59 59 58 58 61 64
37 36 35 35 33 32 31 28 28 27 26 27 28 29 32 34 36 38 37 36 36 38 39 39 38 35 34 34 35 37 37 37 37 36 35 36 39 41 40 38 35 34 32 30 29 29 29 30 32 34 34 34 36 38 39 40 42 42 43 43 43 41 40 45 53 56 57 56 56 55 53 51 50 50 50 51 52 54 56 58 59 59 57 58 62
37 35 34 33 31 29 27 24 23 21 20 21 22 24 27 31 33 34 32 31 31 32 33 33 32 31 31 33 35 36 36 36 36 35 35 37 38 39 39 37 35 33 32 30 29 28 28 28 29 31 32 32 33 36 37 37 39 41 42 40 39 38 36 37 43 49 52 53 54 54 52 50 48 47 47 49 51 54 56 57 58 59 58 57 59
35 33 31 29 27 25 23 21 19 17 15 16 17 20 22 24 26 26 26 27 28 28 28 27 27 27 28 30 32 34 34 33 33 33 34 37 39 39 39 37 35 34 32 31 30 28 27 28 27 28 29 30 31 33 36 36 36 38 42 41 39 37 35 35 39 44 47 49 51 51 50 48 47 45 45 46 48 50 51 51 52 54 57 58 59
32 30 29 27 25 23 21 19 16 14 12 11 11 13 14 15 17 18 20 22 22 22 23 23 24 25 26 28 29 30 31 29 30 31 33 36 40 41 40 39 37 36 34 33 31 29 27 27 27 26 27 28 29 31 34 35 34 34 38 40 40 39 36 36 39 43 46 47 49 50 50 48 46 44 43 41 41 43 44 45 46 48 52 56 59
29 28 27 26 25 24 22 19 16 13 10 7 5 3 4 5 7 9 11 13 14 16 18 20 21 22 23 24 25 25 26 26 27 30 33 35 39 41 41 40 40 39 37 35 33 30 28 28 27 25 25 27 29 30 32 34 33 33 35 36 37 38 38 37 38 40 43 44 47 49 50 49 47 44 41 39 38 38 39 40 41 43 46 51 56
27 26 27 27 25 24 22 20 18 15 13 11 9 7 6 4 3 2 3 5 8 10 12 14 15 17 18 19 21 22 23 24 25 27 30 33 36 39 41 41 41 41 40 38 36 33 30 29 28 26 24 25 28 29 31 32 31 31 33 34 34 35 36 37 38 38 40 41 43 45 47 47 46 43 41 39 38 38 38 38 38 39 42 46 52
25 25 26 25 24 22 21 20 19 17 16 15 14 14 13 12 10 7 4 2 2 4 6 8 9 11 13 15 18 20 21 23 24 25 26 29 33 35 37 38 39 40 40 39 37 35 32 30 29 28 26 25 27 29 30 30 29 29 32 33 33 34 34 35 37 37 38 39 40 41 42 42 42 40 38 38 37 37 38 38 38 38 39 41 46
23 23 24 22 22 21 20 20 20 19 19 18 18 18 17 16 14 12 9 7 4 2 1 1 2 4 6 8 10 12 14 16 18 21 22 25 28 31 32 33 35 36 36 36 36 35 34 32 31 30 28 27 27 28 29 29 28 28 31 32 32 33 33 34 35 35 36 37 38 38 39 40 40 38 37 36 36 35 36 37 37 37 38 38 40
22 22 21 20 20 20 20 21 21 21 21 21 20 20 20 19 17 16 15 13 11 9 8 6 4 3 2 2 1 2 3 5 8 12 16 19 23 27 29 31 32 33 34 35 35 36 36 35 33 31 29 28 28 28 28 28 28 29 30 31 31 32 33 33 33 34 34 34 35 35 37 37 37 37 37 36 35 35 35 36 36 36 37 38 39
21 21 20 19 19 20 21 21 22 22 22 21 20 20 19 19 18 17 15 14 13 11 8 7 5 3 3 4 4 3 2 0 1 3 6 11 15 20 23 25 27 30 32 34 35 36 36 36 35 33 30 29 29 29 29 28 28 29 30 31 31 32 32 32 32 33 33 33 33 34 35 35 36 36 35 35 36 36 36 37 38 38 38 39 40
20 19 18 18 19 20 20 21 21 21 20 19 19 18 17 16 16 16 14 13 12 10 8 6 5 3 2 2 5 5 3 4 4 5 7 9 11 14 17 18 20 22 26 29 32 35 36 37 36 34 32 30 29 29 29 29 30 30 30 31 31 32 31 31 31 32 32 32 33 34 34 35 36 36 36 36 36 37 37 39 39 40 41 41 41
18 17 16 17 18 19 19 19 19 18 17 16 16 15 14 13 11 11 11 10 8 7 6 4 4 4 5 4 4 6 7 8 9 11 12 13 15 16 18 19 19 20 20 20 24 29 33 35 36 35 33 31 29 29 29 30 31 31 30 31 32 32 31 30 30 31 31 32 33 33 34 35 35 36 36 35 36 37 37 38 38 39 40 42 43
17 15 14 15 16 17 17 17 17 17 17 16 14 13 12 12 11 9 9 8 8 8 8 7 6 6 8 8 7 7 10 12 13 14 15 16 18 19 21 21 22 22 21 20 21 23 27 30 33 33 32 30 29 29 29 29 30 30 30 31 33 33 30 29 30 30 30 30 31 31 31 32 33 34 34 33 34 34 35 36 36 37 38 40 42
16 15 14 14 14 14 15 15 15 16 17 17 16 15 14 14 14 13 12 12 12 12 11 10 8 8 9 10 10 10 10 12 14 16 17 18 19 21 22 23 23 23 22 23 24 24 25 27 30 31 30 30 29 29 29 29 30 29 30 32 33 31 29 29 29 29 29 29 29 29 29 30 30 32 32 32 32 32 33 34 35 36 37 39 41
14 14 14 14 13 13 13 13 14 16 17 17 17 17 15 14 14 14 14 14 14 14 13 13 12 12 12 12 13 14 13 13 14 16 18 19 20 22 23 23 24 24 24 25 26 26 26 28 29 30 31 30 30 30 29 29 30 29 30 31 31 29 28 29 28 28 29 29 29 30 31 31 31 32 32 32 33 33 34 35 36 37 38 40 41
13 13 13 14 14 13 13 13 14 15 16 15 15 15 15 15 15 16 16 17 18 18 18 18 18 18 17 17 17 18 18 17 17 17 19 20 21 22 23 23 23 24 25 26 27 27 28 29 30 31 31 31 31 30 29 29 29 29 29 29 28 28 29 30 30 30 31 31 31 32 32 33 33 33 33 33 34 34 34 35 36 37 38 39 40
12 12 13 14 14 14 13 14 15 15 15 14 13 13 14 15 16 17 17 19 21 22 22 22 21 20 18 18 18 19 20 20 21 20 20 21 21 22 23 23 24 25 26 27 27 28 29 30 30 30 31 31 30 29 29 29 29 29 29 29 28 28 29 30 31 32 32 32 32 33 34 35 35 34 33 34 34 35 35 34 35 36 37 38 39
13 13 13 13 14 15 15 17 16 14 14 13 12 12 13 15 16 17 19 22 24 25 24 22 20 19 17 17 18 19 18 19 20 21 21 21 21 22 22 23 24 26 27 27 27 28 29 30 30 30 30 30 30 29 29 28 28 29 29 29 29 29 30 32 33 33 33 34 34 35 37 38 37 36 35 35 36 36 35 35 34 35 35 37 37
13 12 12 13 15 16 17 18 17 15 15 13 11 10 11 13 15 18 22 25 26 25 23 21 20 18 15 15 16 16 14 13 14 17 18 19 19 20 22 23 24 25 26 27 27 28 29 30 31 32 31 31 30 30 30 30 29 29 29 29 29 30 31 33 34 34 35 36 36 37 38 39 38 37 37 38 38 37 35 34 34 34 34 35 36
12 12 12 13 15 16 17 17 17 17 17 15 12 11 12 14 16 20 23 24 25 26 24 21 19 15 12 12 13 11 10 7 6 8 11 14 15 16 18 20 22 24 25 27 28 29 31 32 33 34 33 33 33 33 33 33 33 32 31 30 30 31 32 33 34 34 35 36 35 35 35 35 35 36 37 37 36 35 35 34 33 33 34 34 35
12 12 12 13 14 15 15 15 15 16 16 15 15 16 17 17 19 21 22 22 23 25 24 21 18 15 12 13 13 12 11 9 7 5 5 6 8 9 11 12 14 16 18 20 22 24 25 27 28 30 32 34 35 35 35 35 35 35 33 32 32 33 32 32 33 33 34 33 31 30 30 29 30 31 32 33 33 32 33 33 33 33 33 33 33
12 12 12 12 13 14 14 14 14 15 15 15 17 18 17 18 20 21 21 20 22 24 24 22 20 19 17 15 14 12 11 10 8 6 6 6 6 7 7 8 9 9 10 11 12 14 15 15 16 18 22 25 29 32 33 34 35 36 35 35 35 35 34 33 34 34 33 31 30 29 27 27 27 29 29 30 29 30 31 31 32 32 32 32 32
12 12 12 12 13 13 13 13 14 15 15 15 17 17 17 18 19 19 20 22 24 25 26 26 23 21 19 16 13 12 10 9 7 6 6 7 8 9 9 9 9 8 7 7 7 9 9 9 10 11 12 14 17 20 23 25 28 31 34 36 37 37 36 36 35 33 32 31 31 30 28 27 28 29 29 28 28 29 30 31 31 31 31 30 31
12 12 12 12 12 12 12 13 14 15 14 13 15 17 18 19 19 18 19 22 24 24 25 25 23 20 18 16 13 11 9 8 7 6 7 7 8 9 9 9 9 8 8 7 6 7 8 9 10 11 12 13 14 15 16 18 20 24 27 30 32 32 33 33 32 32 33 33 31 29 27 27 28 28 28 28 28 29 30 30 30 30 30 30 30
10 11 11 11 10 10 11 12 14 15 15 14 13 14 17 18 19 18 19 21 22 22 23 23 21 19 17 15 13 11 10 8 6 6 7 7 9 10 10 9 9 8 7 7 7 7 8 9 10 11 12 13 14 14 15 16 17 18 20 21 24 25 27 29 30 31 30 29 27 26 26 26 27 28 28 29 30 31 31 30 30 30 30 29 29
10 10 11 10 11 11 12 13 14 15 16 15 13 12 14 17 18 19 21 22 22 23 23 22 19 17 15 13 13 12 12 10 9 8 8 9 10 11 11 11 10 9 8 7 6 6 7 9 10 12 12 13 13 13 14 14 14 15 15 16 18 21 23 24 24 24 23 22 22 23 24 25 25 26 27 28 29 30 30 29 28 27 26 26 26
10 10 10 10 11 11 12 14 15 15 15 15 13 11 12 15 16 18 21 23 23 23 23 21 18 16 14 13 12 12 12 11 10 10 10 10 10 12 13 13 12 11 9 8 6 4 6 8 11 13 13 14 14 13 14 14 14 14 14 15 16 18 19 20 19 19 19 20 21 22 23 23 24 25 26 27 27 27 27 26 25 24 24 24 24
10 9 9 10 10 11 12 14 15 15 14 13 12 11 13 15 17 18 20 22 22 21 19 17 16 14 13 12 11 11 10 10 10 9 9 10 11 12 13 14 14 12 11 10 8 4 3 7 11 14 14 14 14 14 14 15 15 15 15 16 16 16 17 17 17 18 18 19 20 21 22 22 23 24 25 25 25 24 24 23 23 23 23 23 22
11 10 10 10 11 12 13 13 14 13 12 11 11 13 14 17 19 21 23 23 21 19 16 15 14 14 13 12 11 10 10 9 8 8 9 9 10 11 13 14 15 13 11 10 9 6 2 4 8 11 12 13 13 13 13 15 16 16 15 15 15 15 15 16 16 16 17 17 18 19 20 21 22 23 23 22 21 21 20 20 20 20 20 20 20
12 11 10 10 10 11 12 12 12 11 11 12 14 15 17 19 21 23 24 23 21 19 17 16 16 15 13 12 12 10 9 8 7 7 7 8 9 12 14 15 15 13 12 10 9 7 4 1 5 9 10 11 13 13 14 15 15 15 14 14 14 14 14 14 14 14 15 15 16 17 18 19 20 20 20 19 18 18 17 17 18 18 18 18 19
11 10 9 9 10 11 11 11 12 11 12 14 16 17 19 21 22 24 24 23 21 19 17 17 17 15 13 11 11 10 8 6 5 4 5 6 8 11 14 15 13 12 12 10 9 8 6 3 3 5 7 9 11 12 13 13 13 12 12 12 13 13 14 14 13 13 13 14 15 16 16 17 17 18 17 17 17 17 17 17 18 17 17 17 17
13 11 9 9 10 11 11 12 12 12 13 14 16 17 19 21 23 25 25 24 22 20 18 18 17 16 13 11 10 9 8 6 4 3 4 4 5 8 12 13 12 11 11 10 10 10 9 7 5 5 6 8 9 10 10 11 11 11 11 11 11 13 13 13 13 13 13 13 14 15 15 16 16 16 16 16 16 16 16 17 16 16 16 16 16
13 11 10 10 10 11 11 13 13 13 13 14 15 16 19 22 24 25 25 25 24 22 21 19 17 15 13 11 9 8 7 6 4 2 2 2 3 6 10 11 10 10 10 9 9 10 9 8 6 6 7 8 8 9 9 9 9 10 10 10 11 11 12 12 11 12 12 13 13 14 14 14 15 15 15 15 15 15 15 14 14 14 14 14 14
13 12 11 12 13 13 14 15 15 15 14 13 14 17 20 23 25 26 26 26 26 24 21 18 15 13 11 9 7 6 6 5 3 1 0 1 1 4 7 9 9 9 8 7 8 8 8 7 7 7 8 8 9 9 9 9 9 9 10 10 10 10 11 11 11 11 11 12 12 13 13 13 13 13 13 13 12 12 12 11 12 12 12 13 13
14 14 14 15 16 16 16 16 16 15 14 15 17 20 22 24 26 27 27 27 26 22 17 14 12 10 9 7 6 5 4 4 3 1 0 1 0 2 5 8 8 8 6 5 6 7 8 8 7 7 8 8 8 8 9 9 9 9 9 9 9 10 10 10 11 11 11 11 11 11 11 11 11 11 10 10 10 10 10 10 11 12 12 13 14
14 14 15 15 14 15 15 15 14 14 15 16 19 20 22 24 26 26 27 27 23 18 15 13 11 9 8 7 6 5 4 3 3 2 1 1 0 2 5 7 7 7 5 4 5 7 8 8 8 7 7 7 7 7 8 8 9 9 9 9 9 9 9 9 10 10 10 10 10 9 9 9 9 9 9 9 9 10 10 11 11 12 13 14 15
14 14 14 14 13 13 14 14 15 15 15 17 19 21 23 25 26 26 26 24 20 15 13 13 11 9 8 8 8 7 7 5 4 4 3 2 1 2 4 6 6 5 3 3 4 6 8 8 8 7 7 7 6 6 7 7 8 9 9 10 9 10 10 10 9 9 8 8 8 8 8 8 8 8 8 8 9 9 10 11 12 13 14 15 16
15 15 15 15 14 14 14 15 15 16 17 18 20 22 23 23 24 24 24 21 16 13 13 13 11 10 9 10 10 10 10 8 7 6 6 5 3 3 4 4 5 4 3 4 5 6 7 8 8 8 7 7 6 6 6 7 7 8 9 10 10 10 9 9 8 8 7 7 7 6 7 7 7 8 8 8 9 10 11 12 14 15 16 17 19
15 15 16 16 15 14 15 15 15 16 18 19 20 21 21 21 22 23 21 17 14 13 13 13 13 12 11 11 11 10 10 9 8 8 7 6 5 5 5 4 5 5 5 6 7 7 7 7 7 7 7 6 7 7 7 7 7 6 6 7 7 7 7 6 6 6 6 6 6 6 7 7 8 9 9 10 11 12 13 14 16 17 18 19 21
16 16 16 16 15 15 15 16 16 17 18 19 19 20 19 19 20 20 18 15 13 13 13 14 14 14 13 12 12 11 10 10 10 9 8 8 7 7 6 6 6 7 7 7 8 8 8 7 7 6 6 6 6 6 7 7 7 6 5 4 4 5 6 6 6 6 7 7 7 8 8 9 9 10 11 12 13 14 15 16 18 19 20 21 22
17 17 16 16 16 16 16 16 17 17 17 17 18 17 17 17 18 17 15 13 12 12 13 14 14 15 15 15 14 13 12 12 11 10 10 9 9 9 8 8 8 8 8 8 9 9 8 8 7 7 7 6 6 7 7 8 8 8 7 6 6 6 6 6 6 6 6 7 7 8 8 9 10 11 12 13 14 16 17 18 19 20 21 22 22
18 18 17 16 16 16 16 16 17 16 16 16 15 14 14 15 15 13 12 12 11 11 12 13 13 14 14 15 15 15 14 14 13 13 12 11 11 10 9 9 8 8 8 8 8 8 8 7 7 7 7 7 8 8 9 9 9 8 7 6 5 5 5 5 5 5 6 7 7 8 9 10 11 13 14 15 16 17 18 19 20 20 21 21 21
20 19 17 16 16 15 16 16 15 15 15 14 13 13 13 13 11 10 9 10 10 11 11 11 12 12 13 13 14 14 14 14 14 14 13 12 12 11 10 9 9 8 7 7 6 6 6 5 5 5 6 6 7 7 8 8 7 6 5 5 5 5 5 6 6 7 7 8 10 11 12 13 14 15 16 17 17 18 18 18 19 19 19 20 21
23 21 20 18 17 16 16 16 15 15 13 12 12 12 12 10 9 8 8 8 9 9 9 10 10 10 11 11 11 12 12 12 12 12 12 11 10 9 8 8 7 7 6 6 5 5 4 4 4 3 3 4 5 5 5 5 5 5 5 5 6 6 7 7 8 9 10 11 13 14 15 15 16 16 16 16 16 16 17 17 18 19 20 21 22
24 23 22 20 19 18 17 17 16 15 13 12 12 12 11 9 7 5 6 6 7 7 8 8 9 9 9 9 9 9 9 9 9 9 9 8 8 7 6 6 5 4 4 4 4 3 3 3 3 3 2 3 3 4 5 5 6 6 6 7 8 8 9 10 11 12 13 14 14 15 15 15 14 14 14 15 15 16 17 18 19 20 21 22 23
Wind_Direction
313 310 306 302 298 292 286 279 270 263 259 255 255 257 258 259 260 261 262 263 264 265 265 265 260 256 259 261 260 257 256 255 251 246 240 235 234 236 237 237 238 240 243 247 249 249 247 245 244 244 243 242 241 239 236 234 238 242 241 239 240 240 238 236 236 235 235 235 235 236 237 238 239 238 237 237 236 235 234 233 232 231 230 231 233
315 311 308 304 299 294 288 281 273 265 260 256 255 256 256 258 258 259 260 260 261 262 263 262 258 255 258 260 259 256 253 252 247 243 239 233 231 232 235 236 238 239 240 243 247 250 250 247 245 244 245 244 241 239 236 233 235 239 241 240 241 242 241 238 236 235 235 235 235 235 236 237 238 238 237 235 236 236 236 235 234 232 230 230 231
316 313 309 305 300 295 288 282 275 267 261 257 256 256 256 257 257 258 259 258 258 259 259 258 256 254 257 259 258 255 253 251 247 243 238 232 229 229 232 235 238 239 241 242 245 249 251 249 246 244 245 246 243 240 237 234 234 238 240 239 240 242 243 240 237 234 234 235 234 234 236 236 237 238 237 235 234 235 235 236 235 233 231 230 229
317 314 311 307 302 297 290 286 278 269 263 260 259 258 258 258 258 259 259 257 256 255 254 254 252 252 254 257 257 255 253 250 249 247 241 234 230 229 231 234 237 240 243 245 247 249 251 250 249 246 245 246 245 243 240 236 236 239 240 239 239 240 241 240 238 236 234 235 234 233 235 237 238 238 238 237 234 233 233 233 233 232 231 230 229
319 317 314 310 307 301 294 289 282 276 271 266 262 260 259 259 258 258 257 256 254 250 248 249 250 251 253 254 255 255 253 250 249 249 244 235 230 230 232 234 237 241 245 248 250 250 251 251 249 247 245 245 245 244 243 240 238 239 240 242 241 238 237 237 238 237 235 235 236 234 234 236 238 238 238 237 235 233 232 231 231 230 229 229 229
324 323 320 316 312 307 301 295 288 282 276 269 263 259 258 258 257 256 254 252 250 247 245 246 248 251 251 252 253 253 253 251 249 248 243 235 230 229 232 234 237 241 244 247 250 250 251 251 249 247 245 245 245 245 244 242 240 238 238 241 241 236 233 233 234 235 235 236 237 236 235 235 237 238 238 237 236 234 233 231 230 229 228 228 228
331 329 327 323 319 314 309 303 295 287 279 271 264 259 256 254 253 252 250 249 248 247 245 245 247 249 250 251 252 252 251 250 249 248 242 234 229 230 232 233 236 239 241 243 247 249 250 250 249 246 244 244 245 245 246 245 241 236 233 235 235 231 228 228 231 232 233 235 236 236 236 236 236 238 238 237 236 234 233 232 231 229 228 226 226
337 336 334 331 328 324 320 313 304 294 282 271 263 257 254 252 251 251 251 251 250 247 245 244 246 248 249 250 250 250 251 250 249 249 242 232 229 231 233 234 235 236 237 240 243 247 249 248 248 247 244 243 243 244 245 246 242 236 232 232 231 226 222 222 226 230 231 233 235 235 235 235 236 236 235 235 234 234 234 233 232 230 228 226 225
342 342 341 340 338 336 333 326 317 306 290 275 263 256 253 250 251 253 253 254 253 250 247 246 248 248 248 249 249 250 252 253 253 251 243 233 227 229 233 235 235 234 235 238 241 245 248 247 246 247 246 243 243 244 244 245 244 238 233 232 231 227 222 219 222 228 230 231 233 233 234 235 234 233 231 231 233 234 234 234 233 231 229 227 225
347 348 350 351 351 352 350 345 338 330 317 297 277 265 256 251 250 252 252 253 253 252 249 247 248 247 245 246 248 250 253 256 256 254 247 236 228 227 231 233 233 234 235 237 241 245 249 246 243 244 245 243 242 243 243 242 242 240 236 234 233 231 228 222 221 224 227 230 231 232 232 232 232 230 228 227 229 231 233 233 234 233 231 228 225
353 356 359 1 2 4 5 3 1 0 358 349 332 300 265 250 247 248 249 248 247 246 245 245 245 244 243 245 247 252 256 259 256 251 247 240 232 230 231 232 234 235 237 239 242 245 248 246 241 239 241 241 240 241 241 240 240 240 238 236 235 234 233 230 226 224 225 228 230 231 231 231 229 227 225 223 224 226 229 231 233 233 232 229 226
0 5 8 9 9 11 15 17 19 24 31 39 49 62 76 86 101 147 209 229 235 239 242 244 246 247 249 251 254 257 259 259 257 251 245 240 235 233 233 234 235 237 239 242 243 244 245 244 240 236 236 238 239 239 240 239 239 239 239 238 237 236 235 234 232 229 228 228 230 230 230 230 229 226 223 222 221 221 223 224 226 229 230 228 226
8 14 15 15 15 19 24 28 32 38 46 54 62 67 73 77 79 84 90 127 214 237 246 252 257 261 264 264 264 264 262 260 259 255 248 240 237 237 237 237 239 240 241 243 243 242 242 243 241 236 233 235 236 238 239 238 238 240 239 238 237 236 236 235 235 234 232 231 231 231 230 231 230 228 225 225 223 222 222 222 222 224 225 225 225
14 19 19 19 20 24 31 37 41 46 52 59 65 68 71 73 72 72 71 71 74 73 62 299 281 276 276 277 274 273 270 265 259 255 249 242 237 239 241 242 243 244 244 244 243 241 240 241 242 238 234 233 234 236 237 236 237 240 241 240 238 236 235 234 234 234 233 233 233 233 232 232 233 232 230 230 228 226 224 223 223 224 224 223 223
18 21 21 23 27 35 42 45 48 52 57 62 65 67 68 69 70 72 72 72 75 79 85 86 82 91 94 76 36 333 301 281 266 254 248 242 237 239 244 247 248 248 247 246 245 242 240 240 241 239 235 233 232 234 236 235 236 238 241 241 240 238 235 233 232 233 233 234 234 234 234 234 235 235 235 235 233 232 230 227 226 225 224 224 224
22 23 26 32 39 46 48 49 52 55 57 61 63 64 65 67 71 73 71 70 68 67 71 71 64 70 103 127 127 113 99 159 237 234 232 232 231 233 240 247 250 251 249 247 244 242 239 238 238 238 237 234 233 234 236 236 237 238 239 240 239 238 236 233 231 231 232 232 232 233 234 235 235 236 236 236 236 235 234 232 229 228 226 226 227
26 29 36 44 49 51 52 54 56 56 57 60 62 64 65 66 69 68 64 62 58 52 49 43 30 12 332 203 169 162 181 206 202 190 184 192 206 217 227 237 245 248 247 245 242 240 238 236 237 238 239 237 237 238 239 240 240 239 238 238 238 238 235 233 232 230 229 230 230 231 233 234 236 236 235 235 235 235 235 235 233 232 231 230 230
32 38 47 53 53 54 54 56 56 54 53 53 57 63 68 70 73 71 66 62 52 41 32 12 342 317 306 285 223 207 218 223 219 212 204 201 207 217 224 229 236 240 241 239 237 236 235 234 236 238 238 239 240 242 242 242 241 239 237 237 237 237 235 234 234 232 232 231 231 232 233 234 236 237 237 236 236 236 237 237 237 236 235 234 234
39 46 54 57 56 54 53 54 52 49 46 46 48 53 59 65 68 62 54 47 36 30 27 15 351 323 309 301 281 246 231 229 229 226 223 221 221 224 226 228 232 236 238 239 237 234 232 231 233 235 236 238 241 241 241 242 241 239 237 237 236 235 235 235 236 236 236 236 236 237 238 238 239 241 241 240 240 240 240 239 239 239 239 238 237
42 50 56 56 53 51 51 53 54 48 43 40 40 42 46 52 53 47 37 28 22 17 10 0 349 332 313 302 295 281 260 246 241 239 237 235 234 234 234 235 237 239 241 241 240 237 232 229 230 233 237 240 241 240 239 241 242 240 238 237 236 234 234 236 238 239 239 239 240 241 241 241 241 242 243 243 242 242 242 241 241 240 240 239 239
42 50 52 49 46 45 44 45 45 41 37 33 31 33 38 45 46 38 27 16 7 1 354 345 335 324 311 302 295 288 280 269 257 251 248 244 242 242 241 240 241 241 240 240 240 239 236 234 235 238 242 244 244 243 242 241 242 242 240 240 239 238 237 237 237 239 240 240 241 242 241 241 241 241 242 243 242 242 241 240 240 239 238 238 238
39 43 43 40 38 37 36 33 29 28 27 25 22 25 33 39 35 25 15 6 359 352 346 337 329 322 314 305 296 287 281 274 265 258 253 251 249 249 249 249 248 247 245 244 242 241 240 240 241 242 244 246 246 246 245 243 242 241 241 240 239 239 239 237 236 237 238 239 241 242 243 243 243 243 244 245 246 245 244 242 240 238 238 239 239
32 32 31 30 29 32 32 29 27 25 22 19 20 29 36 30 20 12 7 2 355 348 341 336 330 325 319 310 301 291 281 274 268 262 256 253 253 252 253 252 251 251 250 248 247 245 244 243 242 242 243 244 244 244 244 244 243 242 242 241 239 239 241 240 238 239 240 241 242 244 245 247 248 248 248 249 250 251 250 247 243 241 240 241 242
27 25 23 21 23 28 30 28 28 27 22 19 22 34 34 21 12 10 6 360 354 348 344 342 338 332 326 318 309 300 290 278 270 267 263 259 258 257 258 257 255 253 252 250 248 247 246 244 243 241 240 240 241 242 242 242 242 242 243 243 242 242 243 243 243 243 243 244 244 246 248 249 251 251 251 250 250 250 249 247 244 241 240 241 242
26 21 19 19 21 25 26 25 27 26 23 23 29 33 26 17 16 13 5 358 356 355 352 351 347 341 333 324 317 312 306 290 272 266 265 263 261 260 259 258 257 256 256 254 251 249 247 245 243 240 238 237 237 239 239 239 239 239 240 241 242 242 243 245 245 246 246 247 247 248 250 250 250 249 248 247 247 247 246 243 241 240 240 241 242
22 18 19 21 24 25 22 21 24 23 19 21 27 25 17 16 20 14 3 357 359 1 0 357 353 349 344 341 342 346 347 333 297 270 265 265 266 266 265 264 262 261 260 258 256 252 250 247 245 243 241 239 238 239 238 237 237 237 236 237 238 238 240 244 247 247 248 249 250 249 249 247 245 244 243 244 245 244 242 239 237 237 239 240 240
20 20 24 25 25 25 22 22 25 21 15 17 21 18 12 11 13 8 0 358 3 5 3 0 1 4 8 9 12 16 16 14 10 350 312 294 289 286 283 280 276 269 264 259 256 253 249 246 244 243 241 239 240 239 238 236 234 232 231 232 233 234 236 240 243 245 247 250 252 250 247 244 242 240 239 240 241 240 239 236 234 235 238 238 238
22 25 28 27 25 24 23 27 28 20 12 9 11 13 11 5 2 0 357 360 6 7 5 6 10 13 15 18 21 22 23 26 27 19 9 1 351 340 331 321 306 288 268 253 245 243 242 238 235 235 235 236 238 239 237 235 231 227 224 226 230 232 233 236 240 243 247 251 252 251 247 242 239 237 235 236 236 235 234 233 233 236 238 238 238
27 28 27 23 21 21 20 22 23 18 10 2 360 2 3 360 358 358 358 1 4 4 6 9 11 10 10 14 18 21 27 35 40 38 33 25 15 3 353 341 330 315 292 262 234 222 219 216 211 209 213 219 226 231 233 233 230 227 225 227 230 234 236 239 243 246 249 250 250 249 245 240 238 236 233 231 230 229 229 230 232 235 237 237 238
24 26 22 18 18 17 16 16 14 11 9 5 358 354 355 358 359 359 358 0 3 3 4 7 7 5 6 8 9 13 20 26 31 35 33 25 14 4 356 347 339 332 318 297 269 240 222 212 206 200 197 199 203 210 219 224 227 228 229 231 234 237 239 240 241 242 244 246 246 245 242 238 235 232 229 226 226 227 228 230 231 233 234 236 237
18 19 17 17 18 15 13 11 7 3 4 6 3 358 357 357 358 357 357 359 1 0 1 4 5 2 3 4 4 5 6 4 5 17 20 13 6 3 2 360 356 351 340 319 292 266 246 230 217 207 200 198 199 202 208 213 218 222 227 231 233 233 233 234 235 236 239 241 240 237 233 229 226 224 223 224 225 226 228 229 230 231 232 232 233
7 8 9 12 12 7 3 2 2 1 2 4 5 3 360 357 357 357 356 356 356 356 356 358 359 359 0 4 6 6 4 1 4 12 15 11 8 7 9 12 12 8 1 346 315 273 249 233 219 208 198 194 195 198 198 199 201 207 214 220 223 223 222 223 226 229 231 231 228 224 220 218 217 219 220 222 223 224 225 227 228 228 228 228 228
359 359 0 0 358 356 354 353 355 359 1 4 8 9 5 3 1 358 355 352 350 349 348 348 351 354 358 4 8 9 9 11 15 19 23 24 20 15 14 17 19 20 19 13 353 299 250 227 212 202 194 191 192 194 193 192 192 195 199 204 210 213 214 215 218 220 219 216 213 211 210 211 213 216 217 218 219 219 220 220 220 220 220 222 224
355 354 352 349 348 348 350 351 356 2 7 11 14 12 9 7 3 358 353 349 344 342 343 345 346 349 353 2 9 11 9 13 19 24 29 32 28 20 17 19 21 23 26 24 13 346 267 226 211 203 197 195 194 194 193 190 186 186 190 195 200 204 209 213 216 216 212 209 207 207 207 209 212 214 214 214 214 213 212 213 214 216 218 220 222
349 348 348 349 348 348 352 357 1 8 14 17 16 13 10 6 1 357 354 353 350 349 350 353 354 351 349 356 6 8 2 2 11 21 26 25 20 16 16 18 21 24 30 29 20 9 335 229 213 206 201 198 196 195 195 192 188 187 191 196 199 203 208 211 212 210 207 205 205 207 208 208 210 211 210 209 209 209 210 212 213 215 218 220 222
350 347 349 353 351 351 357 4 7 10 12 11 11 11 8 4 1 358 356 356 356 355 355 357 359 358 352 351 357 2 359 351 354 9 19 14 7 7 10 13 17 24 32 34 31 29 32 195 207 202 196 194 193 195 197 197 194 191 193 197 200 202 203 203 201 202 204 203 203 205 207 207 208 207 205 204 204 204 207 211 214 215 217 219 220
2 356 354 355 354 354 359 7 10 9 6 3 4 6 4 1 359 357 355 354 354 353 352 352 352 353 352 348 348 355 358 352 345 355 10 7 0 2 5 8 14 24 33 41 46 50 58 82 159 180 180 183 188 191 192 193 193 192 194 198 199 194 188 184 184 187 194 197 197 198 199 199 199 199 199 200 202 203 204 208 211 211 213 214 215
11 9 5 3 1 359 360 2 2 359 357 357 360 0 358 357 356 356 355 354 353 352 349 345 341 340 340 339 341 348 354 355 348 347 1 5 359 357 0 4 12 23 34 47 56 61 68 80 99 131 151 160 166 172 175 178 180 181 184 187 186 180 172 168 169 174 181 187 189 189 190 191 192 194 196 199 202 203 203 204 205 206 208 212 215
8 10 11 8 3 358 356 356 357 357 356 357 356 354 353 354 355 356 356 355 352 348 343 338 335 332 329 329 334 341 349 355 354 344 2 25 3 351 357 5 13 21 33 50 62 67 74 83 94 113 126 130 134 140 144 148 153 156 160 164 168 167 162 161 166 172 176 181 185 186 187 188 190 191 194 195 196 197 197 199 202 206 210 215 219
0 1 0 358 356 354 353 354 357 358 357 354 351 350 351 353 354 355 354 353 350 346 342 339 336 332 329 330 334 340 349 358 354 318 143 86 30 346 357 8 15 19 30 53 70 76 82 87 90 96 101 104 108 112 116 122 128 134 141 148 153 156 157 160 165 170 174 177 179 180 182 183 183 185 188 190 193 195 198 202 209 215 220 225 230
350 349 350 352 353 352 353 355 355 354 353 352 350 350 350 351 352 354 354 352 351 349 347 345 343 342 342 346 353 1 9 12 0 316 199 108 43 343 3 16 20 19 28 56 81 89 93 94 92 93 97 100 103 107 110 114 119 124 130 136 141 147 154 159 162 164 167 169 171 172 175 178 181 184 189 194 199 204 209 214 220 226 230 233 237
343 343 345 348 348 347 348 349 352 353 354 353 351 348 347 348 351 352 353 353 354 355 357 359 359 0 3 9 18 26 30 25 20 23 81 136 303 348 11 24 26 23 30 66 94 101 105 103 100 97 96 98 103 108 113 118 122 126 130 133 137 142 147 152 156 159 161 165 169 173 178 183 188 193 198 203 209 214 219 225 229 233 237 240 245
338 340 342 343 343 343 344 346 349 350 349 349 347 344 343 346 350 351 353 355 358 3 10 15 17 20 26 35 43 48 50 51 57 73 101 120 97 36 36 37 32 28 45 93 112 116 118 115 110 105 99 98 103 109 116 125 131 133 134 136 140 144 147 152 156 159 163 168 175 181 186 191 196 201 207 213 220 226 231 235 240 244 249 254 258
330 333 335 337 338 339 340 342 344 344 343 343 343 342 343 346 348 350 353 358 5 14 22 26 29 33 41 49 55 59 61 64 73 90 106 114 103 83 72 61 50 55 89 123 128 127 124 121 118 116 111 108 109 111 117 124 132 138 142 145 148 151 153 156 159 161 166 173 181 189 196 202 208 214 220 227 233 239 243 248 252 257 260 263 266
329 328 328 329 331 332 334 335 336 337 339 340 340 340 342 346 348 349 354 3 14 25 31 35 36 38 41 44 49 56 63 70 80 92 102 106 104 98 90 81 78 89 112 132 135 131 127 124 122 121 118 115 115 117 120 123 126 130 135 140 148 153 156 160 166 173 181 191 200 207 214 219 223 228 233 238 244 249 253 258 261 264 267 270 272
330 328 327 326 325 324 325 326 329 332 334 334 335 338 343 347 348 351 358 10 23 34 41 44 45 46 47 47 49 55 65 75 84 91 98 104 104 100 95 91 91 98 114 129 134 131 129 127 124 120 118 117 118 121 124 126 127 127 129 138 155 165 171 180 188 194 201 206 211 218 224 229 234 240 245 250 255 260 264 267 270 272 274 275 276
333 329 327 326 326 325 324 324 326 329 331 332 333 338 344 348 350 356 5 17 30 41 48 50 52 54 54 54 57 60 67 75 83 87 91 94 95 94 94 93 95 100 109 119 124 127 129 130 129 128 129 132 137 141 141 141 145 153 161 168 173 179 187 195 200 206 214 221 228 235 241 247 252 257 261 265 268 272 274 275 276 277 277 278 278
345 338 331 328 328 328 328 327 327 329 331 334 337 342 346 350 356 4 14 23 33 43 48 50 53 56 57 59 61 64 68 74 79 81 83 84 86 89 94 98 101 104 107 111 116 119 122 126 130 133 138 145 151 153 155 159 167 175 179 180 183 191 203 212 220 229 239 247 254 259 264 268 271 273 274 276 277 278 278 279 279 280 279 279 279
3 356 348 341 337 335 335 334 333 334 336 340 344 346 348 353 2 14 24 32 38 43 46 48 50 53 58 61 63 65 68 71 74 77 80 81 84 89 96 101 104 105 105 105 107 109 112 117 123 131 142 150 156 162 167 173 180 186 189 196 209 223 232 242 250 258 264 269 273 276 277 278 278 278 279 279 280 280 281 281 281 280 280 278 278
14 12 6 359 354 351 350 348 345 345 347 350 351 350 351 359 11 22 32 40 43 45 45 45 46 47 51 55 59 62 66 68 70 73 76 78 82 86 89 91 92 93 95 98 100 100 104 109 114 123 140 155 166 176 184 190 198 208 217 226 238 248 256 263 269 273 275 277 278 278 278 278 279 280 281 281 281 281 281 280 280 279 278 278 279
21 21 20 15 11 7 4 1 358 356 356 356 355 354 356 5 19 32 38 42 45 46 44 42 40 40 41 45 50 54 57 61 66 70 72 74 77 79 81 82 82 82 85 91 96 99 104 110 114 125 145 169 189 205 215 223 230 237 244 252 259 265 270 273 275 276 277 278 278 279 279 281 281 281 282 281 281 281 281 281 281 281 281 282 282